User: anonymous   Login
Location: Unspecified
(0.0000°N, 0.0000°E)
Time: 08:33:31
(UTC+00:00)
Language:

OAO 2 - Orbit

View from above orbital plane
View from above orbital plane
View from above satellite
View from above satellite

Ground track
Ground track

The orbit data is extracted from the following two-line orbital elements,

1  3597U 68110A   18350.87930480 +.00000015 +00000-0 +92967-5 0  9990
2  3597 034.9925 218.4818 0006287 298.6003 061.4055 14.45819508636765
Epoch (UTC): 16 December 2018 21:06:11
Eccentricity: 0.0006287
inclination: 34.9925°
perigee height: 735 km
apogee height: 744 km
right ascension of ascending node: 218.4818°
argument of perigee: 298.6003°
revolutions per day: 14.45819508
mean anomaly at epoch: 61.4055°
orbit number at epoch: 63676

The dashed part of the orbit path shows where the satellite is in the earth's shadow,  

DLR